• In Belarus
  • List of Countries
  • For 7 days
  • Water Temperature
  • Satellite Maps
  • Weather Map
  • Weather Widgets
  • user-avatar
    Login

    Hourly Weather Naftalan

    Today, 27 July, Thursday

    Time Temperature Precipitation Wind Pressure Humidity
    00:00 +28°C° 0 mm 2 mps 758 mmHg 52%
    01:00 +28°C° 0 mm 2 mps 758 mmHg 52%
    02:00 +28°C° 0 mm 2 mps 758 mmHg 52%
    03:00 +28°C° 0 mm 2 mps 758 mmHg 50%
    04:00 +28°C° 0 mm 2 mps 758 mmHg 48%
    05:00 +29°C° 0 mm 2 mps 758 mmHg 47%
    06:00 +29°C° 0 mm 2 mps 759 mmHg 45%
    07:00 +31°C° 0 mm 2 mps 759 mmHg 40%
    08:00 +34°C° 0 mm 2 mps 759 mmHg 35%
    09:00 +36°C° 0 mm 2 mps 759 mmHg 32%
    10:00 +37°C° 0 mm 3 mps 759 mmHg 30%
    11:00 +38°C° 0 mm 3 mps 758 mmHg 27%
    12:00 +39°C° 0 mm 3 mps 758 mmHg 25%
    13:00 +40°C° 0 mm 4 mps 758 mmHg 24%
    14:00 +40°C° 0 mm 4 mps 758 mmHg 24%
    15:00 +41°C° 0 mm 4 mps 758 mmHg 24%
    16:00 +38°C° 0 mm 4 mps 758 mmHg 26%
    17:00 +37°C° 0 mm 4 mps 758 mmHg 28%
    18:00 +35°C° 0 mm 4 mps 758 mmHg 30%
    19:00 +34°C° 0 mm 4 mps 758 mmHg 36%
    20:00 +32°C° 0 mm 4 mps 759 mmHg 41%
    21:00 +30°C° 0 mm 3 mps 759 mmHg 46%
    22:00 +30°C° 0 mm 3 mps 759 mmHg 42%
    23:00 +29°C° 0 mm 2 mps 759 mmHg 42%

    Tomorrow, 28 July, Friday

    Time Temperature Precipitation Wind Pressure Humidity
    00:00 +29°C° 0 mm 2 mps 759 mmHg 43%
    01:00 +29°C° 0 mm 2 mps 759 mmHg 43%
    02:00 +28°C° 0 mm 1 mps 758 mmHg 43%
    03:00 +28°C° 0 mm 1 mps 758 mmHg 43%
    04:00 +29°C° 0 mm 1 mps 758 mmHg 42%
    05:00 +30°C° 0 mm 1 mps 759 mmHg 40%
    06:00 +30°C° 0 mm 1 mps 759 mmHg 39%
    07:00 +32°C° 0 mm 1 mps 759 mmHg 34%
    08:00 +34°C° 0 mm 1 mps 759 mmHg 29%
    09:00 +37°C° 0 mm 2 mps 759 mmHg 25%
    10:00 +39°C° 0 mm 3 mps 758 mmHg 23%
    11:00 +40°C° 0 mm 3 mps 758 mmHg 21%
    12:00 +42°C° 0 mm 4 mps 758 mmHg 19%
    13:00 +42°C° 0 mm 5 mps 757 mmHg 20%
    14:00 +42°C° 0 mm 5 mps 757 mmHg 20%
    15:00 +42°C° 0 mm 5 mps 756 mmHg 21%
    16:00 +40°C° 0 mm 5 mps 756 mmHg 25%
    17:00 +39°C° 0 mm 5 mps 756 mmHg 30%
    18:00 +36°C° 0 mm 5 mps 756 mmHg 34%
    19:00 +34°C° 0 mm 5 mps 756 mmHg 42%
    20:00 +33°C° 0 mm 4 mps 757 mmHg 50%
    21:00 +30°C° 0 mm 4 mps 757 mmHg 58%
    22:00 +30°C° 0 mm 4 mps 757 mmHg 61%
    23:00 +29°C° 0 mm 3 mps 757 mmHg 64%

    Day after tomorrow, 29 July, Saturday

    Time Temperature Precipitation Wind Pressure Humidity
    00:00 +29°C° 0 mm 3 mps 757 mmHg 67%
    01:00 +29°C° 0 mm 2 mps 757 mmHg 67%
    02:00 +28°C° 0 mm 2 mps 757 mmHg 68%
    03:00 +28°C° 0 mm 2 mps 756 mmHg 69%
    04:00 +29°C° 0 mm 1 mps 757 mmHg 67%
    05:00 +29°C° 0 mm 1 mps 757 mmHg 65%
    06:00 +30°C° 0 mm 1 mps 757 mmHg 63%
    07:00 +32°C° 0 mm 1 mps 757 mmHg 55%
    08:00 +34°C° 0 mm 1 mps 757 mmHg 47%
    09:00 +36°C° 0 mm 1 mps 757 mmHg 39%
    10:00 +38°C° 0 mm 2 mps 757 mmHg 35%
    11:00 +40°C° 0 mm 2 mps 757 mmHg 31%
    12:00 +42°C° 0 mm 3 mps 757 mmHg 28%
    13:00 +43°C° 0 mm 4 mps 756 mmHg 28%
    14:00 +43°C° 0 mm 4 mps 756 mmHg 28%
    15:00 +43°C° 0 mm 5 mps 755 mmHg 28%
    16:00 +41°C° 0 mm 5 mps 755 mmHg 32%
    17:00 +40°C° 0 mm 5 mps 755 mmHg 36%
    18:00 +37°C° 0 mm 5 mps 755 mmHg 40%
    19:00 +35°C° 0 mm 4 mps 756 mmHg 46%
    20:00 +34°C° 0 mm 3 mps 756 mmHg 52%
    21:00 +31°C° 0 mm 2 mps 757 mmHg 58%
    22:00 +31°C° 0 mm 2 mps 757 mmHg 59%
    23:00 +31°C° 0 mm 2 mps 757 mmHg 59%

    30 July, Sunday

    Time Temperature Precipitation Wind Pressure Humidity
    00:00 +30°C° 0 mm 2 mps 757 mmHg 59%
    01:00 +30°C° 0 mm 2 mps 757 mmHg 58%
    02:00 +30°C° 0 mm 2 mps 758 mmHg 57%
    03:00 +29°C° 0 mm 3 mps 758 mmHg 56%
    04:00 +30°C° 0 mm 3 mps 758 mmHg 54%
    05:00 +31°C° 0 mm 3 mps 759 mmHg 53%
    06:00 +31°C° 0 mm 3 mps 759 mmHg 51%
    07:00 +34°C° 0 mm 3 mps 760 mmHg 46%
    08:00 +36°C° 0 mm 4 mps 760 mmHg 40%
    09:00 +38°C° 0 mm 4 mps 760 mmHg 35%
    10:00 +40°C° 0 mm 5 mps 760 mmHg 32%
    11:00 +41°C° 0 mm 6 mps 760 mmHg 30%
    12:00 +43°C° 0 mm 7 mps 760 mmHg 28%
    13:00 +43°C° 0 mm 8 mps 760 mmHg 29%
    14:00 +43°C° 0 mm 8 mps 760 mmHg 30%
    15:00 +43°C° 0 mm 9 mps 759 mmHg 31%
    16:00 +40°C° 0 mm 8 mps 760 mmHg 34%
    17:00 +39°C° 0 mm 8 mps 760 mmHg 37%
    18:00 +36°C° 0 mm 7 mps 760 mmHg 40%
    19:00 +35°C° 0 mm 6 mps 760 mmHg 45%
    20:00 +33°C° 0 mm 6 mps 761 mmHg 49%
    21:00 +32°C° 0 mm 5 mps 761 mmHg 54%
    22:00 +32°C° 0 mm 5 mps 762 mmHg 54%
    23:00 +30°C° 0 mm 5 mps 762 mmHg 55%

    31 July, Monday

    Time Temperature Precipitation Wind Pressure Humidity
    00:00 +30°C° 0 mm 5 mps 762 mmHg 55%
    01:00 +30°C° 0 mm 4 mps 762 mmHg 55%
    02:00 +30°C° 0 mm 4 mps 762 mmHg 55%
    03:00 +30°C° 0 mm 4 mps 762 mmHg 54%
    04:00 +30°C° 0 mm 3 mps 763 mmHg 52%
    05:00 +30°C° 0 mm 3 mps 763 mmHg 50%
    06:00 +31°C° 0 mm 3 mps 763 mmHg 48%
    07:00 +34°C° 0 mm 4 mps 763 mmHg 43%
    08:00 +36°C° 0 mm 4 mps 764 mmHg 37%
    09:00 +38°C° 0 mm 4 mps 764 mmHg 31%
    10:00 +40°C° 0 mm 5 mps 764 mmHg 30%
    11:00 +40°C° 0 mm 6 mps 763 mmHg 29%
    12:00 +41°C° 0 mm 7 mps 763 mmHg 28%
    13:00 +40°C° 0 mm 7 mps 763 mmHg 29%
    14:00 +40°C° 0 mm 7 mps 763 mmHg 31%
    15:00 +39°C° 0 mm 7 mps 762 mmHg 32%
    16:00 +38°C° 0 mm 7 mps 762 mmHg 37%
    17:00 +36°C° 0 mm 6 mps 763 mmHg 41%
    18:00 +34°C° 0 mm 6 mps 763 mmHg 45%
    19:00 +33°C° 0 mm 5 mps 763 mmHg 50%
    20:00 +32°C° 0 mm 4 mps 764 mmHg 54%
    21:00 +30°C° 0 mm 3 mps 764 mmHg 58%
    22:00 +29°C° 0 mm 3 mps 764 mmHg 61%
    23:00 +29°C° 0 mm 3 mps 764 mmHg 63%

    1 August, Tuesday

    Time Temperature Precipitation Wind Pressure Humidity
    00:00 +28°C° 0 mm 2 mps 764 mmHg 65%
    01:00 +28°C° 0 mm 2 mps 764 mmHg 65%
    02:00 +28°C° 0 mm 2 mps 764 mmHg 65%
    03:00 +28°C° 0 mm 2 mps 764 mmHg 65%
    04:00 +28°C° 0 mm 2 mps 764 mmHg 62%
    05:00 +29°C° 0 mm 2 mps 764 mmHg 59%
    06:00 +29°C° 0 mm 2 mps 764 mmHg 55%
    07:00 +31°C° 0 mm 3 mps 765 mmHg 49%
    08:00 +34°C° 0 mm 3 mps 765 mmHg 42%
    09:00 +35°C° 0 mm 3 mps 765 mmHg 35%
    10:00 +36°C° 0 mm 4 mps 764 mmHg 33%
    11:00 +37°C° 0 mm 4 mps 764 mmHg 31%
    12:00 +38°C° 0 mm 4 mps 764 mmHg 29%
    13:00 +39°C° 0 mm 5 mps 763 mmHg 30%
    14:00 +39°C° 0 mm 5 mps 763 mmHg 31%
    15:00 +39°C° 0 mm 5 mps 763 mmHg 32%
    16:00 +36°C° 0 mm 4 mps 763 mmHg 34%
    17:00 +35°C° 0 mm 4 mps 763 mmHg 37%
    18:00 +34°C° 0 mm 4 mps 763 mmHg 39%
    19:00 +33°C° 0 mm 3 mps 763 mmHg 45%
    20:00 +31°C° 0 mm 3 mps 764 mmHg 52%
    21:00 +29°C° 0 mm 2 mps 764 mmHg 58%
    22:00 +29°C° 0 mm 2 mps 764 mmHg 59%
    23:00 +28°C° 0 mm 2 mps 764 mmHg 60%
    Show more